[[{"header":{"parameterUnit":"m.s-1","parameterCategory":1,"la1":30.2991,"la2":30.254,"lo1":-89.0895,"lo2":-89.0444,"dy":0.0017,"dx":0.0017,"nx":28,"ny":28,"refTime":"2024-05-10T09:00:00:Z","depth":0,"parameterNumber":2,"parameterNumberName":"U-component_of_WINDS"},"data":[0,0,0,0,0,0,0,0,0,0,0,0,0,0,0,0,0,0,0,0,0,0,0,0,0,0,0,0,0,0,0,0,0,0,0,0,0,0,0,0,0,0,0,0,0,0,0,0,0,0,0,0,0,0,0,0,0,0,-2.6066,-2.6066,0,-2.6094,-2.6094,-2.6094,-2.6021,-2.6019,-2.6017,-2.6014,-2.6041,-2.6044,-2.6046,0,0,0,0,0,0,0,0,0,0,0,0,0,-2.5947,-2.595,-2.6066,-2.6066,-2.6067,-2.6094,-2.6094,-2.6094,-2.6022,-2.6019,-2.6016,-2.6013,-2.604,-2.6043,-2.6047,0,0,0,0,0,0,0,0,0,0,0,0,0,-2.5989,-2.5951,-2.6066,-2.6034,-2.6031,-2.6094,-2.6094,-2.6094,-2.6022,-2.6019,-2.6015,-2.6012,-2.6039,-2.6043,-2.6047,-2.6142,0,0,-2.606,-2.6062,0,0,0,0,0,0,0,0,-2.5987,-2.5994,-2.6038,-2.6036,-2.6033,-2.605,-2.6062,-2.611,-2.6023,-2.6025,-2.6014,-2.601,-2.6047,-2.605,-2.6063,-2.6143,-2.6144,-2.606,-2.6063,-2.6065,-2.6066,0,0,0,0,0,0,0,-2.5984,-2.5992,-2.6077,-2.6039,-2.6036,-2.6017,-2.6019,-2.6071,-2.6055,-2.6025,-2.602,-2.6024,-2.6045,-2.6059,-2.6063,-2.6144,-2.606,-2.6064,-2.6067,-2.6068,-2.6302,-2.6305,0,0,0,0,0,0,-2.5986,-2.599,-2.6076,-2.6078,-2.6001,-2.6022,-2.6024,-2.6048,-2.6054,-2.6052,-2.6027,-2.6021,-2.6053,-2.6058,-2.6063,-2.6173,-2.6065,-2.6069,-2.6071,-2.6298,-2.6303,-2.6307,0,0,0,0,0,0,-2.5984,-2.5994,-2.6075,-2.6033,-2.6041,-2.6028,-2.6055,-2.6051,-2.6065,-2.6056,-2.6052,-2.6044,-2.6051,-2.6057,-2.6122,-2.6173,-2.6071,-2.6074,-2.6294,-2.63,-2.6305,-2.6394,0,0,0,0,0,0,-2.5981,-2.5994,-2.603,-2.6034,-2.6044,-2.6134,-2.6058,-2.6054,-2.6072,-2.6064,-2.6071,-2.6069,-2.6049,-2.6117,-2.6127,-2.6177,-2.6078,-2.6289,-2.6297,-2.6303,-2.6387,-2.6402,-2.6415,0,0,0,0,0,-2.5977,-2.6054,-2.6032,-2.6043,-2.6089,-2.6138,-2.6143,-2.6119,-2.6077,-2.6113,-2.6107,-2.6069,-2.6166,-2.6124,-2.6135,-2.6187,-2.6286,-2.6294,-2.6302,-2.638,-2.6399,-2.6415,0,0,0,0,0,0,-2.6056,-2.6054,-2.603,-2.6111,-2.6125,-2.6125,-2.6169,-2.614,-2.6165,-2.6156,-2.6124,-2.6126,-2.6197,-2.6199,-2.6151,-2.6278,-2.6219,-2.623,-2.6274,-2.6292,-2.6306,-2.6303,-2.6081,0,0,0,0,0,-2.6083,-2.6123,-2.6119,-2.6191,-2.6199,-2.6184,-2.6204,-2.6184,-2.6197,-2.6202,-2.6201,-2.6214,-2.6247,-2.627,-2.63,-2.6387,-2.6387,-2.6428,-2.6443,-2.6455,-2.6464,-2.6508,-2.6526,-2.6334,-2.6334,-2.6334,0,0,-2.6139,-2.6143,-2.617,-2.6207,-2.6216,-2.6257,-2.6189,-2.6236,-2.6266,-2.6209,-2.627,-2.627,-2.6282,-2.6358,-2.6392,-2.6362,-2.6517,-2.6465,-2.6475,-2.6477,-2.6518,-2.6537,-2.6553,-2.6339,-2.6338,-2.6337,0,0,-2.6262,-2.627,-2.633,-2.634,-2.6354,-2.6343,-2.6357,-2.6362,-2.636,-2.6421,-2.6379,-2.6414,-2.6473,-2.6483,-2.6496,-2.6623,-2.6588,-2.6634,-2.6708,-2.6752,-2.6767,-2.678,-2.6824,-2.684,-2.6643,-2.6644,-2.6644,0,-2.6329,-2.639,-2.6364,-2.6414,-2.6431,-2.6382,-2.6442,-2.6453,-2.6476,-2.6488,-2.6455,-2.6527,-2.6532,-2.6609,-2.664,-2.6653,-2.6668,-2.6632,-2.6767,-2.678,-2.6792,-2.6833,-2.685,-2.6649,-2.6648,-2.6648,-2.6647,0,-2.6472,-2.6515,-2.6562,-2.6586,-2.6608,-2.6663,-2.6644,-2.667,-2.6648,-2.6641,-2.6703,-2.6708,-2.6738,-2.6755,-2.6734,-2.6829,-2.681,-2.6773,-2.6712,-2.6816,-2.6854,-2.687,-2.6657,-2.6655,-2.6653,-2.6652,0,0,-2.6644,-2.6653,-2.6671,-2.668,-2.6692,-2.6725,-2.6777,-2.6807,-2.6829,-2.6847,-2.6888,-2.694,-2.6905,-2.692,-2.69,-2.6939,-2.7037,-2.6896,-2.6896,-2.6921,-2.714,-2.7167,-2.7185,-2.7015,-2.7018,-2.702,-2.7138,0,-2.6764,-2.6854,-2.6832,-2.692,-2.6959,-2.6914,-2.6959,-2.6971,-2.6965,-2.6997,-2.699,-2.7026,-2.6979,-2.6987,-2.7023,-2.7017,-2.708,-2.7009,-2.7052,-2.7054,-2.7048,-2.7206,-2.7234,-2.7345,-2.7153,-2.7156,-2.7158,0,-2.6915,-2.6939,-2.7032,-2.7037,-2.7052,-2.7093,-2.7118,-2.715,-2.7162,-2.7155,-2.7172,-2.7144,-2.7195,-2.7135,-2.7204,-2.7155,-2.7172,-2.7172,-2.7176,-2.7177,-2.7111,-2.7209,-2.738,-2.7396,-2.7181,-2.7179,-2.7177,0,-2.7029,-2.7085,-2.7147,-2.7157,-2.7165,-2.7195,-2.7199,-2.7208,-2.7227,-2.7249,-2.7261,-2.7289,-2.7304,-2.7325,-2.7306,-2.7265,-2.7377,-2.7316,-2.7371,-2.7371,-2.7395,-2.7393,-2.7568,-2.7409,-2.7409,-2.7409,-2.7408,0,-2.7164,-2.7222,-2.7198,-2.7236,-2.73,-2.7274,-2.7337,-2.7336,-2.7345,-2.7381,-2.7344,-2.7379,-2.7351,-2.7384,-2.7369,-2.7427,-2.7434,-2.7429,-2.7424,-2.7431,-2.7431,-2.744,-2.7431,-2.7413,-2.7412,-2.7411,-2.741,0,-2.7302,-2.7288,-2.7353,-2.7355,-2.7357,-2.7404,-2.7405,-2.744,-2.7432,-2.7478,-2.7488,-2.7475,-2.7511,-2.7494,-2.7531,-2.7521,-2.7595,-2.7581,-2.7591,-2.7587,-2.7642,-2.7636,-2.7827,-2.785,-2.7678,-2.768,-2.7681,0,-2.7388,-2.7431,-2.7438,-2.746,-2.7468,-2.7504,-2.7523,-2.75,-2.7521,-2.7538,-2.7571,-2.7604,-2.7628,-2.7688,-2.7681,-2.771,-2.7694,-2.776,-2.7698,-2.7704,-2.7693,-2.769,-2.7693,-2.7771,-2.7773,-2.7775,-2.7776,0,-2.7541,-2.7532,-2.7562,-2.759,-2.7614,-2.7635,-2.7652,-2.7672,-2.7649,-2.7675,-2.7711,-2.7731,-2.7769,-2.7802,-2.7827,-2.783,-2.7799,-2.7796,-2.7809,-2.7816,-2.782,-2.7817,-2.7622,-2.7791,-2.7789,-2.7788,-2.7787,-2.7787,-2.7654,-2.769,-2.7701,-2.7735,-2.7746,-2.7763,-2.7795,-2.7791,-2.7822,-2.7851,-2.7836,-2.7878,-2.7888,-2.7918,-2.7926,-2.7958,-2.7932,-2.7953,-2.7957,-2.7962,-2.7969,-2.7817,-2.7963,-2.7962,-2.7962,-2.7962,-2.7961,0,-2.7804,-2.7809,-2.7841,-2.7866,-2.7893,-2.7862,-2.788,-2.7904,-2.7942,-2.7954,-2.798,-2.8021,-2.8053,-2.8049,-2.8078,-2.8104,-2.809,-2.8112,-2.8109,-2.811,-2.7991,-2.7976,-2.8122,-2.8122,-2.8122,-2.8122,-2.8122,-2.8122,-2.7885,-2.7944,-2.7937,-2.8,-2.8004,-2.8046,-2.8058,-2.8073,-2.8083,-2.8131,-2.8157,-2.8155,-2.8161,-2.8189,-2.8216,-2.8214,-2.8226,-2.8252,-2.8245,-2.8134,-2.8118,-2.8103,-2.8088,-2.8256,-2.8256,-2.836,-2.8361,-2.8362]},{"header":{"parameterUnit":"m.s-1","parameterCategory":1,"la1":30.2991,"la2":30.254,"lo1":-89.0895,"lo2":-89.0444,"dy":0.0017,"dx":0.0017,"nx":28,"ny":28,"refTime":"2024-05-10T09:00:00:Z","depth":0,"parameterNumber":3,"parameterNumberName":"V-component_of_WINDS"},"data":[0,0,0,0,0,0,0,0,0,0,0,0,0,0,0,0,0,0,0,0,0,0,0,0,0,0,0,0,0,0,0,0,0,0,0,0,0,0,0,0,0,0,0,0,0,0,0,0,0,0,0,0,0,0,0,0,0,0,-2.0926,-2.0927,0,-2.1047,-2.1048,-2.105,-2.1088,-2.1088,-2.1087,-2.1087,-2.1207,-2.121,-2.1214,0,0,0,0,0,0,0,0,0,0,0,0,0,-2.0724,-2.0728,-2.0926,-2.0927,-2.0929,-2.1047,-2.1048,-2.105,-2.1088,-2.1088,-2.1087,-2.1086,-2.1205,-2.121,-2.1214,0,0,0,0,0,0,0,0,0,0,0,0,0,-2.0825,-2.0729,-2.0926,-2.0962,-2.0967,-2.1046,-2.1049,-2.1051,-2.1088,-2.1088,-2.1087,-2.1086,-2.1204,-2.1209,-2.1215,-2.1266,0,0,-2.1232,-2.1234,0,0,0,0,0,0,0,0,-2.0819,-2.0832,-2.0955,-2.096,-2.0965,-2.1052,-2.1021,-2.1123,-2.1089,-2.1042,-2.1087,-2.1086,-2.1155,-2.1165,-2.1189,-2.1271,-2.1276,-2.1232,-2.1236,-2.1238,-2.124,0,0,0,0,0,0,0,-2.0812,-2.0827,-2.0974,-2.0957,-2.0963,-2.0972,-2.0985,-2.1041,-2.1102,-2.1046,-2.1049,-2.1063,-2.1158,-2.1184,-2.1192,-2.1278,-2.1232,-2.1237,-2.124,-2.1243,-2.1408,-2.1409,0,0,0,0,0,0,-2.08,-2.0821,-2.097,-2.0977,-2.0889,-2.0976,-2.0991,-2.1025,-2.1101,-2.1112,-2.1064,-2.1065,-2.1175,-2.1186,-2.1197,-2.1261,-2.1238,-2.1243,-2.1246,-2.1407,-2.1408,-2.1409,0,0,0,0,0,0,-2.0795,-2.0812,-2.0965,-2.09,-2.092,-2.098,-2.1018,-2.1027,-2.1054,-2.1115,-2.1125,-2.1079,-2.1175,-2.1189,-2.1249,-2.1266,-2.1246,-2.1251,-2.1406,-2.1407,-2.1409,-2.1391,0,0,0,0,0,0,-2.0789,-2.0811,-2.0831,-2.0901,-2.0924,-2.1015,-2.1019,-2.103,-2.1064,-2.1066,-2.1132,-2.1142,-2.1175,-2.124,-2.1254,-2.1273,-2.1255,-2.1404,-2.1406,-2.1408,-2.139,-2.1391,-2.1393,0,0,0,0,0,-2.0782,-2.082,-2.0832,-2.085,-2.0951,-2.1016,-2.103,-2.1068,-2.1065,-2.1085,-2.1125,-2.114,-2.1262,-2.1246,-2.1262,-2.1283,-2.1403,-2.1406,-2.1408,-2.1389,-2.1391,-2.1393,0,0,0,0,0,0,-2.075,-2.083,-2.0844,-2.0906,-2.0954,-2.1023,-2.105,-2.1068,-2.1117,-2.1117,-2.1161,-2.1176,-2.1232,-2.1264,-2.1244,-2.1336,-2.1333,-2.1339,-2.1313,-2.1316,-2.1317,-2.1308,-2.126,0,0,0,0,0,-2.075,-2.0798,-2.0865,-2.0913,-2.0937,-2.0989,-2.1019,-2.1045,-2.1096,-2.1116,-2.116,-2.1208,-2.1257,-2.1288,-2.1337,-2.1395,-2.141,-2.1418,-2.1419,-2.142,-2.1424,-2.1457,-2.1461,-2.1417,-2.1417,-2.1417,0,0,-2.0751,-2.0801,-2.0828,-2.0908,-2.0949,-2.0996,-2.1006,-2.1056,-2.1091,-2.1123,-2.1182,-2.1216,-2.1273,-2.1332,-2.136,-2.136,-2.1439,-2.1423,-2.1423,-2.1427,-2.146,-2.1464,-2.1467,-2.1419,-2.1419,-2.1418,0,0,-2.0776,-2.0819,-2.0865,-2.0905,-2.0967,-2.1002,-2.1012,-2.1079,-2.1103,-2.1164,-2.1189,-2.1231,-2.1315,-2.1354,-2.1385,-2.1427,-2.1442,-2.1441,-2.1448,-2.148,-2.1483,-2.1486,-2.1501,-2.1505,-2.1445,-2.1445,-2.1445,0,-2.0769,-2.0843,-2.0885,-2.0934,-2.0968,-2.1001,-2.1047,-2.1084,-2.1157,-2.118,-2.1179,-2.1286,-2.1326,-2.1395,-2.1406,-2.143,-2.1443,-2.1433,-2.148,-2.1483,-2.1487,-2.1501,-2.1506,-2.1445,-2.1445,-2.1445,-2.1445,0,-2.0831,-2.0881,-2.091,-2.0982,-2.102,-2.1067,-2.1115,-2.1148,-2.1171,-2.1205,-2.1266,-2.1316,-2.1376,-2.1394,-2.1416,-2.1466,-2.1464,-2.1471,-2.1469,-2.149,-2.1504,-2.1509,-2.1444,-2.1444,-2.1444,-2.1445,0,0,-2.0837,-2.0934,-2.0943,-2.0977,-2.1048,-2.1087,-2.1136,-2.1195,-2.1222,-2.1273,-2.1313,-2.1384,-2.1392,-2.1427,-2.1453,-2.1481,-2.1511,-2.1485,-2.1487,-2.1487,-2.1569,-2.1562,-2.1568,-2.1522,-2.1524,-2.1525,-2.1564,0,-2.0872,-2.0961,-2.1,-2.1071,-2.1118,-2.1151,-2.1193,-2.124,-2.1274,-2.1318,-2.1355,-2.1405,-2.1411,-2.1432,-2.1462,-2.1501,-2.1528,-2.1499,-2.156,-2.1561,-2.1543,-2.1576,-2.1569,-2.1603,-2.157,-2.1571,-2.1571,0,-2.0923,-2.0975,-2.105,-2.1116,-2.1138,-2.1175,-2.1233,-2.1275,-2.133,-2.1352,-2.1392,-2.1418,-2.1469,-2.1464,-2.1535,-2.1514,-2.1542,-2.1565,-2.1567,-2.1573,-2.1567,-2.1581,-2.1616,-2.162,-2.1581,-2.158,-2.1579,0,-2.0919,-2.1008,-2.1065,-2.1092,-2.1171,-2.1196,-2.123,-2.1284,-2.1318,-2.1368,-2.1391,-2.1446,-2.1476,-2.1518,-2.1557,-2.155,-2.1624,-2.1623,-2.1643,-2.1642,-2.1656,-2.1654,-2.1694,-2.1675,-2.1675,-2.1675,-2.1675,0,-2.0953,-2.0997,-2.1065,-2.1099,-2.115,-2.1196,-2.1244,-2.128,-2.1328,-2.137,-2.1402,-2.144,-2.1491,-2.1535,-2.1566,-2.162,-2.1633,-2.1652,-2.166,-2.1649,-2.1646,-2.1666,-2.1664,-2.1677,-2.1676,-2.1676,-2.1676,0,-2.0957,-2.1004,-2.1068,-2.1138,-2.1157,-2.1191,-2.125,-2.1285,-2.1321,-2.1373,-2.1388,-2.1444,-2.1498,-2.1543,-2.1613,-2.1634,-2.1689,-2.1699,-2.1671,-2.1675,-2.1693,-2.169,-2.1746,-2.1755,-2.1731,-2.1731,-2.1731,0,-2.0974,-2.101,-2.1084,-2.1115,-2.1149,-2.1198,-2.1233,-2.1279,-2.1314,-2.138,-2.1406,-2.1463,-2.151,-2.1595,-2.1641,-2.1695,-2.1705,-2.1721,-2.1713,-2.1701,-2.1705,-2.1702,-2.1705,-2.1721,-2.1721,-2.1721,-2.1721,0,-2.1,-2.1022,-2.1072,-2.113,-2.1171,-2.1219,-2.1267,-2.1291,-2.1345,-2.1383,-2.1439,-2.1477,-2.1549,-2.1605,-2.1664,-2.1698,-2.1718,-2.1724,-2.1731,-2.172,-2.1702,-2.1711,-2.1672,-2.1722,-2.1722,-2.1722,-2.1722,-2.1722,-2.1011,-2.1044,-2.1102,-2.1157,-2.1198,-2.1243,-2.1279,-2.1321,-2.1369,-2.1433,-2.1457,-2.1514,-2.1569,-2.1651,-2.1685,-2.173,-2.1732,-2.1743,-2.1746,-2.1747,-2.1746,-2.1696,-2.1741,-2.1741,-2.1741,-2.1741,-2.1741,0,-2.1038,-2.1077,-2.1127,-2.1195,-2.1238,-2.1256,-2.131,-2.1344,-2.1395,-2.1445,-2.1492,-2.1556,-2.1611,-2.1662,-2.1719,-2.1745,-2.1756,-2.1758,-2.1756,-2.1763,-2.1741,-2.1728,-2.1748,-2.1748,-2.1748,-2.1748,-2.1748,-2.1748,-2.1057,-2.1114,-2.1143,-2.1221,-2.126,-2.1317,-2.1347,-2.1388,-2.1428,-2.15,-2.1546,-2.1579,-2.1629,-2.169,-2.1741,-2.1754,-2.1773,-2.1773,-2.1789,-2.1766,-2.1765,-2.1764,-2.1752,-2.1777,-2.1777,-2.1808,-2.1808,-2.1808]}]]